Regional Weather Roundup
Issued by NWS

Home | Current Version | Previous Version | Graphics & Text | Print | Product List | Glossary On
Versions: 1 2 3 4 5 6 7 8 9 10 11 12 13 14 15 16 17 18 19 20 21 22 23 24 25 26 27 28
000
ASUS45 KTFX 230510
RWRMT
MONTANA REGIONAL WEATHER ROUNDUP
NATIONAL WEATHER SERVICE GREAT FALLS MT
1000 PM MST WED FEB 22 2017

NOTE: "FAIR" INDICATES FEW OR NO CLOUDS BELOW 12000 FEET WITH NO
SIGNIFICANT WEATHER AND/OR OBSTRUCTIONS TO VISIBILITY.

MTZ001>007-043-230600-
WEST OF THE DIVIDE

CITY           SKY/WX    TMP DP  RH WIND       PRES   REMARKS
KALISPELL      CLEAR     25  20  81 CALM      29.94S
MISSOULA       CLOUDY    30  28  92 CALM      29.94S
BUTTE          CLOUDY    24  22  91 CALM      29.82S
MULLAN PASS    FOG       20  18  92 NW3       29.85S VSB 1
ANACONDA         N/A     27  21  80 NW3       29.85F
DEER LODGE       N/A     30  23  74 N8        29.89S WCI  23
EUREKA           N/A     27  21  80 CALM      29.98R
HAMILTON         N/A     32  25  74 NW7         N/A  WCI  26
LIBBY            N/A     28  25  86 CALM      29.98R
PLAINS           N/A     33  27  79 CALM      29.98S
RONAN            N/A     26  21  81 CALM      29.97S
$$

MTZ008-052>055-230600-
SOUTHWEST MONTANA

CITY           SKY/WX    TMP DP  RH WIND       PRES   REMARKS
BOZEMAN        CLOUDY    27  23  85 W3        29.85F
DILLON         CLOUDY    28  23  81 NE8       29.79S WCI  20
W YELLOWSTONE  CLOUDY    16  14  93 CALM      29.76F
ENNIS          CLOUDY    18  14  86 E5        29.83F
THREE FORKS      N/A     27   3  35 CALM      29.86F
$$

MTZ009-010-012-014-046-048-049-054-230600-
EAST SLOPES AND CENTRAL MONTANA

CITY           SKY/WX    TMP DP  RH WIND       PRES   REMARKS
CUT BANK       CLOUDY    27  25  92 N5        29.95S FOG
GREAT FALLS    CLOUDY    30  25  81 CALM      29.95S
MALMSTROM AFB  CLOUDY    31  28  89 NW5       29.96S
HELENA         CLOUDY    32  26  78 W6        29.89F WCI  26
AUGUSTA        CLOUDY    27  24  86 N6        29.93R WCI  21
BOWMANS CRNR   MOCLDY    26  23  88 N7        29.91R WCI  18
CHOTEAU          N/A     28  27  93 N6        29.97S WCI  22
CONRAD           N/A     29  28  96 NW6       29.98S WCI  23
POWER          MOCLDY    28  26  91 NW5       29.94S
RAYNESFORD     CLOUDY    29  28  96 NW5       29.93S
ULM            CLOUDY    30  26  86 MISG      29.95S
$$

MTZ011-013-016-021-045-047-050-051-230600-
NORTH CENTRAL MONTANA

CITY           SKY/WX    TMP DP  RH WIND       PRES   REMARKS
HAVRE          LGT SNOW  30  29  96 NE7       29.98R FOG     WCI  23
LEWISTOWN      FLURRIES  29  26  89 E7        29.90S WCI  22
N BAR RANCH    CLOUDY    27  25  93 E7        29.92F FOG     WCI  19
CHINOOK          N/A     32  27  80 CALM      29.99S
DENTON         LGT SNOW  31  30  96 W18G26    29.88S WCI  19
FORT BENTON      N/A     32  28  86 N6        29.98S WCI  26
GEYSER         MOCLDY    27  25  94 W9        29.91R WCI  18
GRASS RANGE    MOCLDY    27  26  97 NE6       29.90S WCI  20
JUDITH GAP     FLURRIES  25  24  96 N7        29.88S WCI  18
ROY            FLURRIES  27  26  94 MISG      29.93S
STANFORD       CLOUDY    27  25  89 NW10      29.89F WCI  18
WINIFRED       CLOUDY    27  26  96 E15       29.91S WCI  15
$$

MTZ017>020-022>027-061-062-230600-
NORTHEAST MONTANA

CITY           SKY/WX    TMP DP  RH WIND       PRES   REMARKS
GLASGOW        CLOUDY    25  24  96 S5        29.99F FOG
JORDAN           N/A     26  22  84 CALM      29.98S
SIDNEY         LGT SNOW  29  27  92 N5        30.02S FOG
WOLF POINT     CLOUDY    28  25  88 NW5       30.01F
PLENTYWOOD       N/A     30  25  80 SW3       29.99S
POPLAR           N/A     28  25  86 CALM      30.01F
SCOBEY           N/A     30  20  66 CALM      29.96R
$$

MTZ028>42-056>058-230600-
SOUTHCENTRAL AND SOUTHEAST MONTANA

CITY           SKY/WX    TMP DP  RH WIND       PRES   REMARKS
BAKER          CLOUDY    27  24  89 NE9       29.95F WCI  18
BILLINGS       CLOUDY    30  29  96 NE10      29.90F WCI  21
LIVINGSTON     FLURRIES  30  24  78 E16       29.84F WCI  19
MILES CITY     CLOUDY    29  24  82 NE6       29.97S WCI  23
BIG TIMBER     CLOUDY    30  27  86 N6        29.90F WCI  24
EKALAKA          N/A     27  24  88 N6        29.90F WCI  21
HARLOWTON      LGT SNOW  28  26  95 NE16      29.88F WCI  16
LAUREL           N/A     30  21  69 CALM      29.89S
$$

REGIONAL REPORTS...DAKOTAS

CITY           SKY/WX    TMP DP  RH WIND       PRES   REMARKS
WILLISTON      CLOUDY    29  25  85 CALM      30.01S
MINOT          CLOUDY    32  27  81 W9        29.97S WCI  24
DICKINSON      CLOUDY    27  23  85 N3        29.95S
BEACH            N/A    N/A N/A N/A MISG        N/A
CROSBY         CLOUDY    32  32 100 SW6       30.00F WCI  26
TIOGA          CLOUDY    28  28 100 W5        30.00S
WATFORD CITY   LGT SNOW  28  28 100 CALM      30.01R
BISMARCK       CLOUDY    31  27  85 N3        30.00R
GRAND FORKS    PTCLDY    29  22  75 NW10      29.96R WCI  20
FARGO          CLEAR     31  28  89 NW9       29.94R WCI  23
BUFFALO SD       N/A     30  28  92 NE12      29.86S WCI  20
RAPID CITY     CLOUDY    32  27  81 NE13      29.90F WCI  22
$$

REGIONAL REPORTS...WYOMING/IDAHO/WASHINGTON

CITY           SKY/WX    TMP DP  RH WIND       PRES   REMARKS
GILLETTE       CLOUDY    30  27  88 NE8       29.85R WCI  22
SHERIDAN       CLOUDY    32  27  81 E9        29.86F WCI  24
BUFFALO WY     LGT SNOW  31  27  85 E7        29.84R FOG     WCI  24
CODY           FLURRIES  29  26  89 NE7       29.83F WCI  22
YELLOWSTONE LA   N/A      2  -1  88 CALM      29.74F
IDAHO FALLS    CLOUDY    30  27  88 N6        29.74F WCI  24
SALMON         CLOUDY    30  27  86 W3        29.79S
BOISE          LGT SNOW  33  30  88 NW13      29.85S FOG     WCI  24
SPOKANE        PTCLDY    28  25  88 S3        30.02S
$$

REGIONAL REPORTS...ALBERTA

CITY           SKY/WX    TMP DP  RH WIND       PRES   REMARKS
EDMONTON       PTCLDY    19  14  79 W6        30.07R WCI  11
CALGARY        MOCLDY    25  21  86 VRB2      30.02R FOG
LETHBRIDGE     FLURRIES  27  23  86 NE13      30.02R WCI  16
MEDICINE HAT   FLURRIES  25  23  93 NE6       30.06R WCI  18
WATERTON GATE    N/A     23  21  93 N7          N/A  WCI  15
MILK RIVER       N/A     27  25  93 NE15        N/A  WCI  15
$$

REGIONAL REPORTS...SASKATCHEWAN

CITY           SKY/WX    TMP DP  RH WIND       PRES   REMARKS
SWIFT CURRENT  LGT SNOW  25  23  93 N13       29.99S WCI  13
REGINA         FLURRIES  28  23  80 N13       30.00R WCI  18
SASKATOON      FLURRIES  25  16  68 NW2       30.07S
CYPRESS HILLS    N/A     19  18  93 N6          N/A  WCI  11
VAL MARIE        N/A     30  27  86 SW6         N/A  WCI  24
ROCKGLEN         N/A     28  25  86 W6          N/A  WCI  22
ASSINIBOIA       N/A     21  16  79 NW7         N/A  WCI  13
$$




USA.gov is the U.S. government's official web portal to all federal, state and local government web resources and services.